Wind_Speed
17 17 16 17 17 17 17 15 15 16 16 15 14 15 14 13 13 13 13 13 13 13 12 12 12 12 11 10 9 8 8 8 8 8 9 9 9 9 9 9 9 8 8 8
18 18 17 17 17 17 16 16 16 17 16 15 15 15 15 14 14 13 13 14 14 14 13 13 12 11 11 11 10 9 9 10 9 9 10 9 9 10 10 9 9 9 9 9
19 19 18 17 17 16 16 15 16 17 16 16 15 15 16 16 15 14 14 14 15 15 14 13 12 12 11 11 10 10 10 10 10 10 10 10 10 10 10 9 9 9 9 9
20 20 18 18 17 16 16 16 16 16 15 16 16 14 17 17 16 15 14 14 14 14 13 13 13 12 11 11 10 10 10 11 11 11 11 11 10 10 10 10 10 9 9 9
19 19 19 18 18 17 17 17 17 16 16 16 16 15 16 16 15 15 14 14 14 14 14 13 13 12 12 11 11 11 11 12 12 12 11 11 11 11 11 11 11 10 10 10
20 20 19 19 18 18 17 17 17 16 15 17 17 15 15 15 15 14 14 14 14 14 14 14 13 13 12 12 12 12 12 13 14 13 13 13 12 12 12 12 12 12 11 11
20 20 19 19 18 18 17 16 15 15 16 17 18 17 16 15 15 14 14 14 14 13 14 13 13 13 13 13 12 13 14 14 15 15 14 14 14 13 13 13 13 13 12 12
19 19 20 19 18 18 18 16 16 15 15 16 18 17 17 16 15 14 14 15 14 14 14 13 13 13 14 14 13 14 14 15 15 14 15 15 15 15 14 14 13 13 13 12
19 19 20 19 18 19 18 18 18 17 16 15 17 18 17 16 16 15 15 15 15 15 14 14 14 15 15 15 14 14 14 14 14 15 15 16 15 15 15 15 14 14 14 13
19 19 19 18 18 19 19 18 18 17 16 16 16 17 17 16 16 15 16 16 16 16 16 15 15 16 16 15 15 15 15 15 16 16 16 16 16 16 16 15 15 15 15 15
19 18 18 18 18 19 19 19 19 19 18 16 15 17 18 16 16 17 17 16 16 16 17 17 16 17 17 17 17 17 16 16 17 17 17 17 17 17 16 16 16 16 16 15
19 19 18 18 19 19 19 20 19 19 20 19 17 18 20 17 17 17 18 17 17 17 17 18 18 18 19 19 19 18 18 17 17 17 17 17 18 18 18 17 17 17 17 16
20 19 19 18 19 20 21 20 20 20 20 19 18 18 20 19 19 18 18 19 19 18 18 19 20 20 20 21 20 20 19 19 18 18 18 18 19 19 19 18 18 17 17 17
20 20 19 18 18 20 20 20 20 20 19 19 19 20 21 20 20 20 20 20 20 21 20 21 21 22 22 22 22 21 21 21 20 19 19 19 19 19 20 20 20 19 18 18
21 21 21 21 20 20 21 21 21 21 21 20 20 21 21 21 21 21 21 21 21 22 22 22 23 23 23 22 22 23 22 22 22 21 21 21 20 20 21 21 21 20 20 20
20 21 21 21 22 21 21 21 21 21 21 22 22 22 22 22 22 22 22 22 22 22 23 23 24 24 24 23 24 23 23 24 24 23 23 22 21 21 21 21 22 22 22 22
20 19 19 19 20 21 22 21 21 21 22 22 22 22 22 22 22 22 22 23 23 23 23 24 24 24 24 24 24 24 24 24 25 24 24 23 22 22 22 23 23 24 24 23
20 20 19 19 20 20 21 21 21 22 22 22 23 22 22 22 22 22 22 22 22 22 23 24 24 23 23 24 23 24 24 25 26 26 25 25 24 24 24 24 25 25 25 24
21 21 20 20 20 21 22 22 22 22 22 22 22 22 22 21 22 22 21 21 22 23 23 23 23 24 24 24 24 24 24 25 25 25 25 26 25 25 26 25 25 25 25 25
22 22 22 22 21 21 22 22 21 21 22 21 21 21 21 21 21 22 22 22 22 21 21 22 23 24 25 25 25 26 26 26 26 26 26 26 26 27 27 26 25 25 24 25
22 22 22 23 23 23 22 21 22 21 22 21 21 20 20 20 21 21 22 22 22 22 22 22 22 23 24 24 25 26 26 26 26 26 27 27 27 27 26 26 26 26 26 26
23 22 22 22 22 23 22 22 22 22 22 21 20 20 20 20 20 21 21 21 22 22 23 23 24 24 24 25 25 25 26 26 25 25 25 26 26 25 25 25 26 26 26 26
24 23 23 22 23 23 22 22 22 22 22 21 20 21 21 21 21 21 21 22 22 23 23 24 25 25 26 26 26 26 25 25 25 25 24 24 24 24 24 24 25 26 26 27
24 24 24 23 23 22 21 21 21 21 21 21 21 21 21 22 22 22 22 23 23 23 24 25 25 26 26 26 26 26 26 26 25 25 24 24 23 24 24 24 25 25 26 26
23 23 23 23 22 22 21 21 21 21 20 20 21 21 22 22 23 23 23 24 24 25 25 25 25 25 24 24 25 25 25 25 25 25 24 24 24 25 25 25 26 26 26 26
23 23 23 23 22 21 21 21 21 21 20 21 21 21 22 22 23 23 24 24 25 25 25 25 25 26 25 24 24 25 26 25 25 25 25 25 25 25 25 26 26 27 26 26
Wind_Direction
237 237 237 238 238 239 241 242 242 247 248 248 250 252 256 258 261 260 264 272 278 282 284 285 289 290 285 283 286 288 293 300 307 310 313 316 319 320 317 317 316 315 311 309
236 237 237 239 241 242 243 244 243 247 249 249 250 253 258 262 263 262 265 271 275 279 280 283 287 288 284 280 281 282 288 293 300 304 307 307 312 317 319 317 314 310 309 304
233 236 237 237 239 242 242 241 242 247 251 253 256 257 258 263 266 267 268 272 275 275 275 280 284 283 279 276 280 281 285 290 294 298 299 300 304 309 314 315 314 310 307 304
232 234 234 235 238 241 241 241 241 245 251 257 257 261 262 263 266 269 272 275 275 273 274 280 280 278 276 275 277 280 282 289 292 294 295 297 300 304 307 308 308 307 306 304
233 233 233 236 238 238 237 240 241 246 251 256 259 260 264 265 264 268 268 271 272 274 276 282 281 277 274 273 276 279 280 285 291 292 292 294 296 298 301 303 304 303 300 301
233 234 234 235 236 236 238 239 243 249 253 255 258 259 262 266 269 269 268 269 270 272 274 278 278 274 275 277 277 277 280 285 289 291 292 291 292 294 297 299 300 301 299 298
234 235 235 234 236 237 237 235 244 249 251 256 259 258 260 263 267 268 268 269 270 271 273 275 276 271 272 277 280 280 281 286 289 290 291 291 289 292 293 294 296 297 295 294
232 236 237 236 237 240 235 233 236 242 250 254 259 258 263 264 266 266 269 272 271 271 274 275 274 273 273 275 279 282 284 288 292 293 293 293 291 292 291 289 289 292 291 289
231 235 238 237 237 238 239 237 239 243 249 251 256 260 264 263 265 265 267 271 273 273 274 274 272 272 275 276 277 282 283 287 291 295 297 296 296 293 292 289 286 287 290 290
230 233 237 238 238 238 239 241 241 241 248 252 257 264 266 264 264 264 267 272 273 271 268 268 268 268 273 276 280 281 283 286 289 292 294 295 296 295 291 289 286 285 286 287
231 233 236 236 236 240 241 243 242 242 246 249 255 261 262 263 262 265 269 273 273 267 264 265 266 269 269 271 276 278 282 285 286 287 289 291 294 295 294 289 287 283 283 284
233 233 237 239 239 240 242 243 243 244 250 251 252 258 261 262 263 265 267 270 269 266 264 265 267 270 270 271 274 276 280 283 285 285 285 287 290 291 291 291 291 288 285 283
234 236 239 243 246 244 243 244 245 247 250 252 253 259 262 262 264 264 266 267 267 264 264 265 267 270 273 273 274 275 277 279 280 281 281 284 287 289 288 288 289 287 285 283
235 238 238 239 242 246 246 246 246 248 250 253 256 257 262 263 266 265 265 266 265 263 264 266 268 270 273 276 275 276 276 275 276 277 278 281 284 287 288 286 284 282 282 283
237 240 241 239 242 244 245 247 248 249 249 253 256 260 262 264 266 266 265 265 265 264 265 268 270 271 273 274 276 278 275 273 274 275 276 278 281 284 285 283 281 279 280 282
238 240 242 243 244 246 247 247 249 250 252 255 258 261 263 265 267 268 267 267 267 265 265 269 271 272 274 275 276 277 276 274 274 274 274 277 280 282 282 282 280 278 279 279
240 242 244 247 246 249 251 250 250 252 254 257 260 262 264 265 267 267 267 267 268 266 264 266 270 272 272 273 274 276 274 273 275 275 275 275 278 281 280 281 282 280 278 277
243 244 246 249 247 248 250 250 252 254 256 258 261 264 265 265 266 266 264 265 266 266 264 265 267 271 273 273 272 274 273 274 274 274 275 276 276 278 280 281 281 280 276 274
244 243 245 249 253 255 252 251 252 254 256 259 261 263 264 266 267 266 265 264 265 266 266 265 265 270 274 274 275 275 276 277 276 275 275 276 275 277 279 279 279 277 275 272
244 243 245 248 251 255 256 255 255 256 256 259 262 262 263 264 265 265 266 266 268 271 272 271 269 270 273 275 276 276 277 279 279 276 276 276 278 280 278 276 276 275 274 274
243 244 245 249 251 253 256 257 257 257 259 261 261 262 264 267 267 268 270 271 271 273 275 275 275 274 274 275 275 275 276 279 280 277 275 276 277 278 277 275 273 273 272 273
243 246 247 249 251 254 255 257 256 256 258 260 260 262 265 267 268 267 269 271 272 274 275 276 277 277 277 278 278 278 278 278 280 279 277 277 278 277 276 275 273 271 271 272
242 245 249 250 252 255 257 258 257 256 257 259 259 261 264 267 268 267 268 269 271 273 275 277 278 278 277 277 278 279 280 280 281 279 279 279 278 278 278 277 275 274 274 274
243 246 250 251 253 256 258 259 258 258 257 258 258 260 264 266 267 268 267 268 270 272 275 278 279 280 280 278 277 278 279 280 280 279 279 279 278 278 278 278 276 275 275 275
247 247 248 250 254 257 258 258 259 258 258 257 258 261 264 265 266 266 267 268 271 273 275 277 279 280 281 281 279 279 280 279 279 279 280 280 279 279 278 278 277 276 275 273
250 250 249 251 254 256 257 256 255 254 256 256 257 261 266 267 268 269 270 270 272 273 274 276 278 281 281 282 281 280 279 278 279 280 281 282 281 280 279 278 278 277 275 273
Height
5870 5873 5875 5877 5878 5880 5881 5883 5884 5885 5885 5886 5887 5888 5888 5888 5888 5888 5887 5887 5886 5886 5885 5884 5882 5881 5880 5879 5879 5878 5877 5876 5875 5874 5873 5871 5870 5868 5866 5865 5863 5862 5861 5859
5867 5869 5871 5873 5874 5876 5878 5879 5881 5881 5882 5883 5884 5885 5885 5885 5885 5885 5884 5884 5883 5883 5882 5881 5880 5878 5878 5877 5877 5876 5875 5874 5873 5872 5871 5869 5868 5866 5865 5863 5862 5860 5859 5858
5863 5866 5867 5869 5871 5872 5874 5876 5877 5878 5878 5880 5881 5882 5882 5882 5881 5881 5881 5881 5880 5880 5879 5878 5877 5876 5875 5875 5874 5874 5873 5872 5871 5870 5869 5867 5866 5864 5863 5862 5860 5859 5857 5856
5858 5861 5863 5865 5867 5869 5870 5872 5873 5874 5876 5877 5879 5880 5879 5878 5878 5878 5878 5877 5877 5876 5876 5875 5874 5873 5873 5872 5872 5871 5870 5870 5869 5867 5866 5865 5864 5862 5861 5860 5858 5857 5855 5854
5855 5857 5859 5861 5864 5865 5867 5869 5870 5871 5873 5874 5875 5876 5877 5875 5875 5875 5875 5874 5874 5873 5873 5872 5872 5871 5870 5869 5869 5868 5868 5867 5866 5865 5864 5862 5861 5860 5858 5857 5856 5854 5853 5852
5851 5853 5855 5857 5860 5861 5863 5865 5866 5868 5869 5871 5871 5873 5873 5872 5872 5872 5871 5871 5871 5870 5870 5869 5868 5868 5867 5867 5866 5865 5865 5864 5863 5862 5861 5860 5858 5857 5855 5854 5853 5852 5851 5849
5847 5849 5851 5853 5856 5857 5859 5863 5865 5866 5867 5868 5868 5868 5869 5869 5869 5869 5868 5868 5867 5867 5867 5866 5865 5865 5864 5864 5863 5863 5862 5861 5860 5859 5858 5857 5855 5854 5852 5851 5850 5849 5848 5846
5844 5846 5847 5849 5852 5854 5856 5859 5863 5865 5866 5866 5863 5864 5866 5865 5865 5865 5865 5864 5864 5864 5863 5863 5863 5862 5861 5861 5860 5860 5859 5858 5856 5855 5854 5853 5852 5850 5849 5848 5847 5845 5844 5843
5841 5843 5844 5845 5848 5850 5852 5854 5857 5859 5860 5861 5861 5860 5861 5861 5861 5861 5861 5861 5860 5860 5860 5860 5859 5859 5858 5858 5857 5857 5856 5855 5854 5852 5851 5850 5848 5847 5846 5845 5843 5842 5841 5840
5836 5838 5840 5841 5844 5845 5848 5850 5852 5854 5856 5857 5858 5857 5857 5857 5857 5857 5857 5857 5857 5857 5856 5856 5856 5855 5855 5854 5854 5853 5852 5851 5850 5849 5848 5846 5845 5844 5843 5841 5840 5839 5837 5836
5832 5835 5836 5838 5839 5841 5844 5846 5847 5850 5852 5854 5855 5856 5852 5853 5853 5853 5853 5853 5852 5852 5852 5852 5852 5852 5851 5850 5850 5849 5849 5847 5846 5845 5844 5843 5842 5840 5839 5837 5836 5835 5834 5833
5827 5830 5832 5834 5835 5837 5839 5840 5843 5845 5846 5847 5850 5852 5847 5848 5848 5848 5848 5848 5848 5848 5848 5848 5847 5847 5847 5846 5845 5845 5844 5843 5842 5841 5840 5839 5837 5836 5835 5834 5832 5831 5830 5829
5823 5826 5829 5830 5833 5833 5834 5835 5837 5839 5841 5842 5844 5847 5842 5843 5843 5843 5843 5843 5843 5843 5843 5842 5842 5842 5841 5841 5840 5840 5839 5838 5837 5836 5835 5834 5833 5832 5830 5829 5828 5827 5826 5825
5819 5821 5825 5827 5827 5828 5829 5830 5832 5834 5836 5837 5838 5839 5837 5837 5838 5838 5838 5838 5838 5838 5837 5837 5837 5836 5836 5835 5835 5834 5834 5833 5832 5831 5830 5829 5828 5827 5826 5824 5823 5822 5821 5820
5814 5816 5818 5820 5821 5822 5824 5825 5827 5828 5830 5832 5832 5832 5832 5832 5832 5832 5832 5832 5832 5832 5832 5831 5831 5830 5830 5829 5829 5828 5828 5827 5827 5826 5825 5824 5823 5822 5820 5819 5818 5817 5816 5815
5809 5811 5813 5814 5816 5817 5818 5819 5821 5822 5824 5825 5825 5826 5826 5826 5826 5826 5826 5826 5826 5826 5825 5825 5825 5824 5824 5824 5823 5822 5822 5821 5821 5820 5819 5818 5817 5816 5815 5814 5813 5811 5810 5810
5804 5806 5808 5809 5810 5811 5813 5814 5815 5816 5818 5819 5819 5820 5820 5820 5820 5820 5820 5820 5819 5819 5819 5819 5818 5818 5818 5817 5817 5816 5816 5815 5814 5813 5813 5812 5811 5810 5809 5808 5806 5805 5804 5803
5799 5800 5802 5804 5806 5807 5810 5808 5810 5811 5811 5812 5813 5813 5813 5813 5814 5814 5814 5813 5813 5813 5812 5812 5812 5811 5811 5810 5810 5809 5809 5808 5807 5807 5806 5805 5804 5803 5802 5801 5799 5798 5797 5796
5793 5795 5797 5798 5799 5800 5801 5802 5803 5804 5805 5806 5806 5807 5807 5807 5807 5807 5807 5807 5807 5807 5806 5806 5805 5805 5805 5804 5804 5803 5802 5801 5800 5799 5798 5797 5796 5796 5795 5793 5792 5790 5789 5788
5787 5789 5791 5792 5793 5794 5796 5796 5796 5799 5799 5800 5800 5800 5801 5801 5801 5801 5801 5801 5801 5801 5800 5799 5799 5798 5798 5797 5797 5796 5795 5794 5792 5791 5791 5790 5789 5788 5786 5785 5784 5783 5782 5781
5781 5783 5784 5786 5787 5787 5789 5789 5791 5793 5794 5793 5793 5794 5794 5795 5795 5795 5794 5794 5794 5794 5794 5793 5792 5792 5791 5790 5789 5788 5787 5786 5785 5784 5783 5782 5781 5780 5778 5777 5776 5775 5774 5773
5775 5777 5778 5779 5781 5783 5782 5783 5785 5785 5786 5786 5787 5788 5788 5788 5788 5788 5788 5788 5788 5788 5787 5787 5786 5785 5784 5783 5782 5781 5780 5779 5778 5776 5775 5774 5773 5772 5770 5769 5768 5767 5766 5765
5768 5771 5772 5774 5775 5775 5775 5776 5777 5778 5779 5779 5780 5781 5782 5782 5782 5782 5782 5782 5782 5781 5780 5780 5779 5778 5777 5776 5775 5773 5772 5771 5770 5769 5768 5766 5765 5764 5763 5762 5761 5760 5759 5757
5762 5763 5765 5766 5767 5767 5768 5769 5770 5771 5772 5773 5774 5774 5775 5775 5775 5775 5775 5775 5775 5774 5773 5773 5772 5771 5770 5768 5767 5766 5765 5764 5762 5761 5760 5759 5758 5756 5755 5754 5753 5752 5751 5750
5755 5756 5757 5758 5760 5761 5762 5763 5763 5764 5765 5766 5767 5768 5768 5768 5768 5768 5768 5768 5767 5767 5766 5765 5764 5763 5762 5761 5760 5758 5757 5756 5755 5754 5753 5751 5750 5749 5748 5746 5745 5744 5743 5742
5748 5749 5751 5752 5754 5754 5755 5756 5757 5758 5759 5760 5760 5761 5761 5761 5761 5761 5761 5760 5760 5759 5759 5758 5757 5756 5755 5753 5752 5751 5750 5748 5747 5746 5745 5744 5742 5741 5740 5738 5737 5735 5734 5733